Find Starlink 31036

NORAD ID: 58533 Int'l Des: 2023-192 Owner: SPXS Country: US Constellation: starlink operational
LEOCIRCULAR

Current View

Loading 3D Globe...

About Starlink 31036

Starlink 31036 (NORAD 58533) is a starlink constellation satellite (v2 mini) launched Dec 8, 2023 by SPXS of US. It operates in LEO, CIRCULAR orbit with a mass of 730.00 kg.

About Starlink 31036

Description loading...

Upcoming Passes

Passes for default location (London). Set your location on the main map for personalized predictions.

Altitude History

Loading altitude history...

Two-Line Element Set

1 58533U 23192C 26170.70108578 -.00000539 00000-0 -48122-5 0 9994
2 58533 53.1601 307.5340 0001101 77.9048 282.2078 15.34401200141625
Epoch: Jun 19, 2026 • Age: 24 hours

Current Status

Altitude 473.0 km
Velocity 7.63 km/s
Sub-Earth Point -31.48°S, 17.48°W
Launch Date Dec 8, 2023
Age 2.5 years
Type internet

Technical Details

Classification Payload
Mass 730.00 kg
Dry Mass 700.00 kg
Total Mass 730.00 kg
Length 0.30 m
Diameter 4.10 m
Span 29.00 m
Shape Box + pan
Manufacturer SPXS
Bus Type Starlink V2M
Phase Status In Orbit
Owner/State SPXS/US

Most Searched